| time (UTC) | temp F | wind direction | speed MPH | gust MPH | rain 1hr in | rain 24hr in | rain mn in | humidity % | barometer mb |
| 20260904081329 | 71 | 154 | 18.0 | 21.0 | 0.00 | 0.00 | 0.00 | 19 | 1013.1 |
| 20260904080826 | 72 | 163 | 12.0 | 21.0 | 0.00 | 0.00 | 0.00 | 18 | 1013.3 |
| 20260904080320 | 71 | 146 | 14.0 | 19.0 | 0.00 | 0.00 | 0.00 | 19 | 1013.1 |
| 20260904075817 | 71 | 163 | 14.0 | 20.0 | 0.00 | 0.00 | 0.00 | 20 | 1013.1 |
| 20260904075312 | 71 | 155 | 15.0 | 21.0 | 0.00 | 0.00 | 0.00 | 20 | 1013.4 |
| 20260904074810 | 71 | 152 | 10.0 | 18.0 | 0.00 | 0.00 | 0.00 | 20 | 1013.2 |
| 20260904074306 | 71 | 127 | 16.0 | 19.0 | 0.00 | 0.00 | 0.00 | 19 | 1013.2 |
| 20260904073801 | 71 | 167 | 11.0 | 17.0 | 0.00 | 0.00 | 0.00 | 20 | 1013.0 |
| 20260904073257 | 71 | 148 | 14.0 | 17.0 | 0.00 | 0.00 | 0.00 | 20 | 1013.1 |
| 20260904072753 | 70 | 170 | 9.0 | 16.0 | 0.00 | 0.00 | 0.00 | 21 | 1013.0 |
| 20260904072252 | 70 | 170 | 11.0 | 15.0 | 0.00 | 0.00 | 0.00 | 22 | 1013.0 |
| 20260904071748 | 71 | 190 | 12.0 | 16.0 | 0.00 | 0.00 | 0.00 | 21 | 1012.7 |
| 20260904071248 | 71 | 153 | 12.0 | 18.0 | 0.00 | 0.00 | 0.00 | 21 | 1013.0 |
| 20260904070743 | 71 | 155 | 14.0 | 16.0 | 0.00 | 0.00 | 0.00 | 21 | 1013.0 |
| 20260904070243 | 71 | 155 | 14.0 | 15.0 | 0.00 | 0.00 | 0.00 | 20 | 1012.7 |
| 20260904065742 | 71 | 164 | 12.0 | 15.0 | 0.00 | 0.00 | 0.00 | 20 | 1013.0 |
| 20260904065239 | 71 | 172 | 9.0 | 18.0 | 0.00 | 0.00 | 0.00 | 21 | 1012.9 |
| 20260904064739 | 71 | 172 | 13.0 | 16.0 | 0.00 | 0.00 | 0.00 | 21 | 1013.1 |
| 20260904064234 | 71 | 156 | 10.0 | 19.0 | 0.00 | 0.00 | 0.00 | 21 | 1012.6 |
| 20260904063730 | 71 | 152 | 11.0 | 18.0 | 0.00 | 0.00 | 0.00 | 22 | 1012.9 |
| 20260904063226 | 72 | 174 | 11.0 | 16.0 | 0.00 | 0.00 | 0.00 | 21 | 1012.7 |
| 20260904062722 | 73 | 178 | 6.0 | 18.0 | 0.00 | 0.00 | 0.00 | 21 | 1012.7 |
| 20260904062217 | 73 | 163 | 13.0 | 21.0 | 0.00 | 0.00 | 0.00 | 20 | 1012.9 |
| 20260904061713 | 73 | 153 | 18.0 | 22.0 | 0.00 | 0.00 | 0.00 | 20 | 1012.6 |
| 20260904061209 | 72 | 169 | 13.0 | 16.0 | 0.00 | 0.00 | 0.00 | 21 | 1012.4 |
| 20260904060706 | 72 | 147 | 7.0 | 17.0 | 0.00 | 0.00 | 0.00 | 21 | 1012.6 |
| 20260904060201 | 72 | 154 | 14.0 | 20.0 | 0.00 | 0.00 | 0.00 | 21 | 1012.4 |
| 20260904055656 | 72 | 161 | 8.0 | 15.0 | 0.00 | 0.00 | 0.00 | 21 | 1012.6 |
| 20260904055151 | 72 | 156 | 9.0 | 18.0 | 0.00 | 0.00 | 0.00 | 21 | 1012.6 |
| 20260904054642 | 72 | 170 | 12.0 | 17.0 | 0.00 | 0.00 | 0.00 | 21 | 1012.5 |
| 20260904054138 | 72 | 166 | 11.0 | 18.0 | 0.00 | 0.00 | 0.00 | 21 | 1012.4 |
| 20260904053637 | 72 | 150 | 14.0 | 15.0 | 0.00 | 0.00 | 0.00 | 21 | 1012.4 |
| 20260904053131 | 73 | 165 | 9.0 | 14.0 | 0.00 | 0.00 | 0.00 | 21 | 1012.4 |
| 20260904052628 | 73 | 164 | 12.0 | 17.0 | 0.00 | 0.00 | 0.00 | 21 | 1012.4 |
| 20260904052125 | 73 | 166 | 10.0 | 16.0 | 0.00 | 0.00 | 0.00 | 21 | 1012.6 |
| 20260904051621 | 73 | 152 | 8.0 | 18.0 | 0.00 | 0.00 | 0.00 | 21 | 1012.4 |
| 20260904051120 | 73 | 175 | 8.0 | 17.0 | 0.00 | 0.00 | 0.00 | 21 | 1012.6 |
| 20260904050616 | 73 | 160 | 12.0 | 18.0 | 0.00 | 0.00 | 0.00 | 21 | 1012.5 |
| 20260904050113 | 73 | 164 | 9.0 | 14.0 | 0.00 | 0.00 | 0.00 | 22 | 1012.3 |
| 20260904045613 | 73 | 168 | 8.0 | 14.0 | 0.00 | 0.00 | 0.00 | 21 | 1012.5 |
| 20260904045107 | 74 | 157 | 12.0 | 17.0 | 0.00 | 0.00 | 0.00 | 21 | 1012.5 |
| 20260904044603 | 73 | 153 | 16.0 | 19.0 | 0.00 | 0.00 | 0.00 | 21 | 1012.4 |
| 20260904044059 | 74 | 170 | 9.0 | 18.0 | 0.00 | 0.00 | 0.00 | 21 | 1012.4 |
| 20260904043555 | 74 | 161 | 8.0 | 17.0 | 0.00 | 0.00 | 0.00 | 22 | 1012.3 |
| 20260904043051 | 74 | 149 | 10.0 | 16.0 | 0.00 | 0.00 | 0.00 | 21 | 1012.4 |
| 20260904042547 | 74 | 147 | 10.0 | 17.0 | 0.00 | 0.00 | 0.00 | 21 | 1012.3 |
| 20260904042043 | 74 | 177 | 6.0 | 17.0 | 0.00 | 0.00 | 0.00 | 22 | 1012.4 |
| 20260904041538 | 74 | 162 | 12.0 | 19.0 | 0.00 | 0.00 | 0.00 | 21 | 1012.3 |
| 20260904041034 | 74 | 145 | 15.0 | 16.0 | 0.00 | 0.00 | 0.00 | 21 | 1012.3 |
| 20260904040534 | 74 | 152 | 11.0 | 19.0 | 0.00 | 0.00 | 0.00 | 22 | 1012.2 |
| 20260904040031 | 74 | 180 | 8.0 | 13.0 | 0.00 | 0.00 | 0.00 | 22 | 1012.0 |
| 20260904035531 | 74 | 173 | 10.0 | 12.0 | 0.00 | 0.00 | 0.00 | 23 | 1012.2 |
| 20260904035030 | 74 | 163 | 9.0 | 18.0 | 0.00 | 0.00 | 0.00 | 22 | 1012.3 |
| 20260904034525 | 74 | 147 | 10.0 | 17.0 | 0.00 | 0.00 | 0.00 | 22 | 1012.0 |
| 20260904034021 | 74 | 158 | 15.0 | 18.0 | 0.00 | 0.00 | 0.00 | 22 | 1012.0 |
| 20260904033517 | 74 | 171 | 10.0 | 17.0 | 0.00 | 0.00 | 0.00 | 22 | 1012.2 |
| 20260904033014 | 74 | 158 | 6.0 | 15.0 | 0.00 | 0.00 | 0.00 | 23 | 1012.0 |
| 20260904032508 | 74 | 158 | 8.0 | 15.0 | 0.00 | 0.00 | 0.00 | 22 | 1012.2 |
| 20260904032008 | 75 | 159 | 12.0 | 14.0 | 0.00 | 0.00 | 0.00 | 22 | 1012.4 |
| 20260904031503 | 75 | 178 | 8.0 | 14.0 | 0.00 | 0.00 | 0.00 | 22 | 1012.2 |
| 20260904030959 | 75 | 166 | 9.0 | 17.0 | 0.00 | 0.00 | 0.00 | 21 | 1011.9 |
| 20260904030454 | 76 | 169 | 11.0 | 15.0 | 0.00 | 0.00 | 0.00 | 21 | 1012.0 |
| 20260904025949 | 76 | 150 | 9.0 | 17.0 | 0.00 | 0.00 | 0.00 | 21 | 1011.9 |
| 20260904025445 | 77 | 142 | 13.0 | 19.0 | 0.00 | 0.00 | 0.00 | 20 | 1011.9 |
| 20260904024945 | 77 | 166 | 10.0 | 15.0 | 0.00 | 0.00 | 0.00 | 20 | 1011.8 |
| 20260904024441 | 77 | 158 | 15.0 | 22.0 | 0.00 | 0.00 | 0.00 | 20 | 1011.7 |
| 20260904023936 | 77 | 154 | 13.0 | 19.0 | 0.00 | 0.00 | 0.00 | 19 | 1011.7 |
| 20260904023433 | 76 | 148 | 13.0 | 17.0 | 0.00 | 0.00 | 0.00 | 21 | 1011.6 |
| 20260904022932 | 76 | 176 | 14.0 | 17.0 | 0.00 | 0.00 | 0.00 | 21 | 1011.7 |
| 20260904022429 | 76 | 153 | 8.0 | 17.0 | 0.00 | 0.00 | 0.00 | 20 | 1011.6 |
| 20260904021925 | 77 | 170 | 5.0 | 13.0 | 0.00 | 0.00 | 0.00 | 20 | 1011.6 |
| 20260904021421 | 77 | 152 | 12.0 | 15.0 | 0.00 | 0.00 | 0.00 | 20 | 1011.9 |
| 20260904020920 | 77 | 149 | 6.0 | 16.0 | 0.00 | 0.00 | 0.00 | 19 | 1011.5 |
| 20260904020416 | 79 | 155 | 12.0 | 14.0 | 0.00 | 0.00 | 0.00 | 17 | 1011.7 |
| 20260904015914 | 79 | 152 | 7.0 | 16.0 | 0.00 | 0.00 | 0.00 | 17 | 1011.6 |
| 20260904015410 | 79 | 166 | 8.0 | 17.0 | 0.00 | 0.00 | 0.00 | 16 | 1011.5 |
| 20260904014908 | 79 | 169 | 10.0 | 15.0 | 0.00 | 0.00 | 0.00 | 17 | 1011.5 |
| 20260904014404 | 79 | 163 | 9.0 | 15.0 | 0.00 | 0.00 | 0.00 | 17 | 1011.7 |
| 20260904013859 | 80 | 193 | 9.0 | 13.0 | 0.00 | 0.00 | 0.00 | 17 | 1011.8 |
| 20260904013355 | 80 | 168 | 7.0 | 17.0 | 0.00 | 0.00 | 0.00 | 17 | 1011.7 |
| 20260904012851 | 80 | 185 | 9.0 | 11.0 | 0.00 | 0.00 | 0.00 | 18 | 1011.9 |
| 20260904012345 | 80 | 162 | 16.0 | 16.0 | 0.00 | 0.00 | 0.00 | 18 | 1011.6 |
| 20260904011845 | 81 | 176 | 17.0 | 19.0 | 0.00 | 0.00 | 0.00 | 17 | 1011.6 |
| 20260904011340 | 82 | 192 | 10.0 | 13.0 | 0.00 | 0.00 | 0.00 | 18 | 1011.8 |
| 20260904010835 | 82 | 213 | 7.0 | 12.0 | 0.00 | 0.00 | 0.00 | 18 | 1011.7 |
| 20260904010332 | 83 | 154 | 10.0 | 14.0 | 0.00 | 0.00 | 0.00 | 18 | 1011.7 |
| 20260904005832 | 83 | 155 | 15.0 | 15.0 | 0.00 | 0.00 | 0.00 | 18 | 1012.0 |
| 20260904005328 | 81 | 163 | 11.0 | 18.0 | 0.00 | 0.00 | 0.00 | 18 | 1011.9 |
| 20260904004823 | 81 | 147 | 10.0 | 11.0 | 0.00 | 0.00 | 0.00 | 18 | 1011.7 |
| 20260904004319 | 81 | 170 | 6.0 | 12.0 | 0.00 | 0.00 | 0.00 | 18 | 1011.7 |
| 20260904003814 | 81 | 169 | 12.0 | 17.0 | 0.00 | 0.00 | 0.00 | 16 | 1012.0 |
| 20260904003310 | 82 | 162 | 10.0 | 12.0 | 0.00 | 0.00 | 0.00 | 18 | 1011.8 |
| 20260904002805 | 82 | 146 | 7.0 | 17.0 | 0.00 | 0.00 | 0.00 | 17 | 1011.6 |
| 20260904002301 | 84 | 181 | 7.0 | 10.0 | 0.00 | 0.00 | 0.00 | 17 | 1011.8 |
| 20260904001800 | 85 | 174 | 7.0 | 13.0 | 0.00 | 0.00 | 0.00 | 15 | 1011.9 |
| 20260904001255 | 85 | 164 | 13.0 | 17.0 | 0.00 | 0.00 | 0.00 | 15 | 1011.8 |
| 20260904000751 | 84 | 154 | 6.0 | 22.0 | 0.00 | 0.00 | 0.00 | 15 | 1012.0 |
| 20260904000251 | 84 | 170 | 17.0 | 21.0 | 0.00 | 0.00 | 0.00 | 16 | 1011.9 |
| 20260903235750 | 84 | 166 | 8.0 | 16.0 | 0.00 | 0.00 | 0.00 | 16 | 1012.0 |
| 20260903235247 | 86 | 156 | 10.0 | 19.0 | 0.00 | 0.00 | 0.00 | 15 | 1012.0 |
| 20260903234746 | 85 | 149 | 12.0 | 16.0 | 0.00 | 0.00 | 0.00 | 15 | 1011.9 |
| 20260903234243 | 85 | 193 | 11.0 | 18.0 | 0.00 | 0.00 | 0.00 | 15 | 1012.0 |
| 20260903233738 | 85 | 159 | 9.0 | 16.0 | 0.00 | 0.00 | 0.00 | 15 | 1012.2 |
| 20260903233234 | 85 | 184 | 9.0 | 22.0 | 0.00 | 0.00 | 0.00 | 15 | 1012.2 |
| 20260903232733 | 85 | 146 | 9.0 | 21.0 | 0.00 | 0.00 | 0.00 | 16 | 1012.3 |
| 20260903232229 | 84 | 179 | 9.0 | 22.0 | 0.00 | 0.00 | 0.00 | 16 | 1012.2 |
| 20260903231728 | 83 | 189 | 6.0 | 21.0 | 0.00 | 0.00 | 0.00 | 15 | 1012.2 |
| 20260903231224 | 83 | 156 | 21.0 | 25.0 | 0.00 | 0.00 | 0.00 | 16 | 1012.7 |
| 20260903230719 | 83 | 124 | 6.0 | 9.0 | 0.00 | 0.00 | 0.00 | 17 | 1012.5 |
| 20260903230219 | 83 | 146 | 10.0 | 19.0 | 0.00 | 0.00 | 0.00 | 16 | 1012.4 |
| 20260903225716 | 84 | 226 | 6.0 | 15.0 | 0.00 | 0.00 | 0.00 | 15 | 1012.7 |
| 20260903225212 | 83 | 142 | 15.0 | 19.0 | 0.00 | 0.00 | 0.00 | 16 | 1012.7 |
| 20260903224708 | 82 | 149 | 9.0 | 15.0 | 0.00 | 0.00 | 0.00 | 16 | 1012.7 |
| 20260903224204 | 82 | 128 | 14.0 | 26.0 | 0.00 | 0.00 | 0.00 | 15 | 1012.7 |
| 20260903223658 | 82 | 138 | 15.0 | 16.0 | 0.00 | 0.00 | 0.00 | 16 | 1013.1 |
| 20260903223157 | 82 | 136 | 15.0 | 19.0 | 0.00 | 0.00 | 0.00 | 16 | 1012.9 |
| 20260903222652 | 82 | 228 | 3.0 | 20.0 | 0.00 | 0.00 | 0.00 | 16 | 1012.9 |
| 20260903222150 | 82 | 187 | 11.0 | 18.0 | 0.00 | 0.00 | 0.00 | 17 | 1013.0 |
| 20260903221646 | 81 | 152 | 14.0 | 20.0 | 0.00 | 0.00 | 0.00 | 17 | 1013.1 |
| 20260903221144 | 82 | 180 | 8.0 | 25.0 | 0.00 | 0.00 | 0.00 | 17 | 1013.3 |
| 20260903220643 | 82 | 175 | 15.0 | 22.0 | 0.00 | 0.00 | 0.00 | 16 | 1013.4 |
| 20260903220138 | 81 | 135 | 7.0 | 16.0 | 0.00 | 0.00 | 0.00 | 17 | 1013.2 |
| 20260903215637 | 81 | 182 | 6.0 | 21.0 | 0.00 | 0.00 | 0.00 | 18 | 1013.4 |
| 20260903215132 | 81 | 162 | 16.0 | 24.0 | 0.00 | 0.00 | 0.00 | 16 | 1013.6 |
| 20260903214631 | 81 | 157 | 11.0 | 22.0 | 0.00 | 0.00 | 0.00 | 16 | 1013.7 |
| 20260903214126 | 81 | 147 | 17.0 | 20.0 | 0.00 | 0.00 | 0.00 | 16 | 1013.4 |
| 20260903213621 | 81 | 190 | 9.0 | 21.0 | 0.00 | 0.00 | 0.00 | 16 | 1013.7 |
| 20260903213116 | 81 | 145 | 13.0 | 26.0 | 0.00 | 0.00 | 0.00 | 17 | 1013.8 |
| 20260903212612 | 81 | 132 | 10.0 | 26.0 | 0.00 | 0.00 | 0.00 | 16 | 1013.6 |
| 20260903212107 | 81 | 178 | 5.0 | 17.0 | 0.00 | 0.00 | 0.00 | 17 | 1013.6 |
| 20260903211602 | 81 | 141 | 10.0 | 18.0 | 0.00 | 0.00 | 0.00 | 16 | 1013.6 |
| 20260903211059 | 81 | 136 | 16.0 | 24.0 | 0.00 | 0.00 | 0.00 | 16 | 1014.0 |
| 20260903210554 | 81 | 163 | 3.0 | 21.0 | 0.00 | 0.00 | 0.00 | 16 | 1014.1 |
| 20260903210050 | 81 | 182 | 9.0 | 15.0 | 0.00 | 0.00 | 0.00 | 17 | 1014.1 |
| 20260903205548 | 81 | 180 | 8.0 | 16.0 | 0.00 | 0.00 | 0.00 | 19 | 1014.2 |
| 20260903205043 | 81 | 161 | 9.0 | 21.0 | 0.00 | 0.00 | 0.00 | 18 | 1014.1 |
| 20260903204539 | 81 | 174 | 11.0 | 15.0 | 0.00 | 0.00 | 0.00 | 17 | 1014.2 |
| 20260903204035 | 82 | 160 | 9.0 | 22.0 | 0.00 | 0.00 | 0.00 | 16 | 1014.2 |
| 20260903203530 | 83 | 179 | 9.0 | 16.0 | 0.00 | 0.00 | 0.00 | 17 | 1014.4 |
| 20260903203030 | 83 | 156 | 8.0 | 16.0 | 0.00 | 0.00 | 0.00 | 17 | 1014.6 |
| 20260903202525 | 82 | 156 | 12.0 | 24.0 | 0.00 | 0.00 | 0.00 | 16 | 1014.5 |
| 20260903202021 | 82 | 179 | 5.0 | 13.0 | 0.00 | 0.00 | 0.00 | 18 | 1014.9 |
| 20260903201515 | 82 | 176 | 13.0 | 19.0 | 0.00 | 0.00 | 0.00 | 16 | 1014.9 |
| 20260903201014 | 82 | 153 | 4.0 | 14.0 | 0.00 | 0.00 | 0.00 | 18 | 1015.2 |
| 20260903200509 | 82 | 137 | 12.0 | 15.0 | 0.00 | 0.00 | 0.00 | 17 | 1014.9 |
| 20260903200004 | 81 | 149 | 12.0 | 14.0 | 0.00 | 0.00 | 0.00 | 18 | 1014.7 |
| 20260903195501 | 82 | 151 | 15.0 | 20.0 | 0.00 | 0.00 | 0.00 | 17 | 1014.9 |
| 20260903194956 | 82 | 171 | 9.0 | 17.0 | 0.00 | 0.00 | 0.00 | 18 | 1015.1 |
| 20260903194451 | 81 | 138 | 13.0 | 19.0 | 0.00 | 0.00 | 0.00 | 17 | 1015.1 |
| 20260903193946 | 81 | 179 | 7.0 | 11.0 | 0.00 | 0.00 | 0.00 | 17 | 1015.1 |
| 20260903193442 | 81 | 185 | 10.0 | 16.0 | 0.00 | 0.00 | 0.00 | 18 | 1015.3 |
| 20260903192937 | 81 | 140 | 16.0 | 19.0 | 0.00 | 0.00 | 0.00 | 17 | 1015.3 |
| 20260903192435 | 80 | 131 | 12.0 | 14.0 | 0.00 | 0.00 | 0.00 | 18 | 1015.5 |
| 20260903191935 | 79 | 137 | 9.0 | 24.0 | 0.00 | 0.00 | 0.00 | 16 | 1015.6 |
| 20260903191431 | 80 | 169 | 16.0 | 24.0 | 0.00 | 0.00 | 0.00 | 17 | 1015.6 |
| 20260903190930 | 80 | 165 | 6.0 | 20.0 | 0.00 | 0.00 | 0.00 | 17 | 1015.9 |
| 20260903190425 | 80 | 145 | 14.0 | 21.0 | 0.00 | 0.00 | 0.00 | 17 | 1015.9 |
| 20260903185924 | 80 | 152 | 11.0 | 19.0 | 0.00 | 0.00 | 0.00 | 20 | 1016.0 |
| 20260903185420 | 79 | 187 | 5.0 | 16.0 | 0.00 | 0.00 | 0.00 | 19 | 1015.6 |
| 20260903184915 | 79 | 196 | 6.0 | 16.0 | 0.00 | 0.00 | 0.00 | 19 | 1016.2 |
| 20260903184412 | 80 | 115 | 10.0 | 21.0 | 0.00 | 0.00 | 0.00 | 18 | 1016.1 |
| 20260903183912 | 79 | 187 | 8.0 | 19.0 | 0.00 | 0.00 | 0.00 | 17 | 1016.2 |
| 20260903183407 | 80 | 135 | 17.0 | 19.0 | 0.00 | 0.00 | 0.00 | 18 | 1016.2 |
| 20260903182906 | 80 | 198 | 9.0 | 14.0 | 0.00 | 0.00 | 0.00 | 20 | 1016.4 |
| 20260903182405 | 79 | 157 | 6.0 | 11.0 | 0.00 | 0.00 | 0.00 | 18 | 1016.6 |
| 20260903181906 | 79 | 144 | 9.0 | 21.0 | 0.00 | 0.00 | 0.00 | 18 | 1016.4 |
| 20260903181401 | 79 | 187 | 8.0 | 17.0 | 0.00 | 0.00 | 0.00 | 20 | 1016.6 |
| 20260903180901 | 78 | 170 | 4.0 | 21.0 | 0.00 | 0.00 | 0.00 | 18 | 1016.7 |
| 20260903180401 | 79 | 175 | 16.0 | 24.0 | 0.00 | 0.00 | 0.00 | 17 | 1016.7 |
| 20260903175855 | 79 | 172 | 7.0 | 17.0 | 0.00 | 0.00 | 0.00 | 19 | 1016.6 |
| 20260903175355 | 78 | 172 | 4.0 | 15.0 | 0.00 | 0.00 | 0.00 | 19 | 1016.8 |
| 20260903174850 | 78 | 152 | 11.0 | 30.0 | 0.00 | 0.00 | 0.00 | 18 | 1016.6 |
| 20260903174345 | 78 | 129 | 13.0 | 19.0 | 0.00 | 0.00 | 0.00 | 18 | 1016.3 |
| 20260903173844 | 77 | 118 | 12.0 | 23.0 | 0.00 | 0.00 | 0.00 | 18 | 1016.8 |
| 20260903173339 | 78 | 126 | 19.0 | 21.0 | 0.00 | 0.00 | 0.00 | 17 | 1016.8 |
| 20260903172835 | 78 | 153 | 4.0 | 20.0 | 0.00 | 0.00 | 0.00 | 19 | 1016.8 |
| 20260903172329 | 78 | 191 | 8.0 | 14.0 | 0.00 | 0.00 | 0.00 | 19 | 1016.4 |
| 20260903171825 | 77 | 145 | 6.0 | 24.0 | 0.00 | 0.00 | 0.00 | 19 | 1016.7 |
| 20260903171321 | 78 | 130 | 7.0 | 18.0 | 0.00 | 0.00 | 0.00 | 18 | 1016.9 |
| 20260903170820 | 78 | 159 | 11.0 | 24.0 | 0.00 | 0.00 | 0.00 | 17 | 1016.7 |
| 20260903170315 | 78 | 142 | 6.0 | 19.0 | 0.00 | 0.00 | 0.00 | 19 | 1016.8 |
| 20260903165813 | 77 | 121 | 11.0 | 14.0 | 0.00 | 0.00 | 0.00 | 18 | 1016.9 |
| 20260903165309 | 77 | 122 | 7.0 | 22.0 | 0.00 | 0.00 | 0.00 | 19 | 1016.8 |
| 20260903164808 | 77 | 103 | 9.0 | 16.0 | 0.00 | 0.00 | 0.00 | 20 | 1016.8 |
| 20260903164304 | 77 | 103 | 11.0 | 13.0 | 0.00 | 0.00 | 0.00 | 18 | 1016.9 |
| 20260903163803 | 76 | 167 | 3.0 | 17.0 | 0.00 | 0.00 | 0.00 | 17 | 1016.9 |
| 20260903163300 | 75 | 145 | 12.0 | 24.0 | 0.00 | 0.00 | 0.00 | 18 | 1016.7 |
| 20260903162755 | 76 | 154 | 17.0 | 23.0 | 0.00 | 0.00 | 0.00 | 18 | 1016.8 |
| 20260903162251 | 76 | 110 | 15.0 | 23.0 | 0.00 | 0.00 | 0.00 | 20 | 1016.9 |
| 20260903161747 | 75 | 134 | 15.0 | 28.0 | 0.00 | 0.00 | 0.00 | 18 | 1016.9 |
| 20260903161242 | 75 | 136 | 8.0 | 22.0 | 0.00 | 0.00 | 0.00 | 17 | 1016.7 |
| 20260903160738 | 75 | 130 | 10.0 | 23.0 | 0.00 | 0.00 | 0.00 | 18 | 1016.8 |
| 20260903160236 | 75 | 151 | 10.0 | 20.0 | 0.00 | 0.00 | 0.00 | 19 | 1016.8 |
| 20260903155735 | 75 | 164 | 9.0 | 16.0 | 0.00 | 0.00 | 0.00 | 18 | 1016.8 |
| 20260903155231 | 75 | 130 | 7.0 | 22.0 | 0.00 | 0.00 | 0.00 | 18 | 1016.7 |
| 20260903154726 | 75 | 156 | 19.0 | 21.0 | 0.00 | 0.00 | 0.00 | 19 | 1016.4 |
| 20260903154222 | 74 | 157 | 7.0 | 21.0 | 0.00 | 0.00 | 0.00 | 19 | 1016.8 |
| 20260903153717 | 74 | 148 | 16.0 | 18.0 | 0.00 | 0.00 | 0.00 | 19 | 1016.6 |
| 20260903153213 | 74 | 142 | 9.0 | 18.0 | 0.00 | 0.00 | 0.00 | 19 | 1017.0 |
| 20260903152709 | 73 | 144 | 11.0 | 23.0 | 0.00 | 0.00 | 0.00 | 19 | 1016.9 |
| 20260903152206 | 73 | 139 | 12.0 | 21.0 | 0.00 | 0.00 | 0.00 | 20 | 1016.8 |
| 20260903151705 | 73 | 172 | 4.0 | 17.0 | 0.00 | 0.00 | 0.00 | 18 | 1017.1 |
| 20260903151200 | 73 | 139 | 17.0 | 20.0 | 0.00 | 0.00 | 0.00 | 19 | 1017.0 |
| 20260903150655 | 71 | 148 | 6.0 | 17.0 | 0.00 | 0.00 | 0.00 | 20 | 1016.8 |
| 20260903150150 | 70 | 178 | 4.0 | 13.0 | 0.00 | 0.00 | 0.00 | 20 | 1016.9 |
| 20260903145649 | 70 | 139 | 10.0 | 17.0 | 0.00 | 0.00 | 0.00 | 20 | 1016.8 |
| 20260903145144 | 69 | 156 | 9.0 | 16.0 | 0.00 | 0.00 | 0.00 | 21 | 1016.8 |
| 20260903144643 | 69 | 152 | 9.0 | 21.0 | 0.00 | 0.00 | 0.00 | 20 | 1016.7 |
| 20260903144139 | 69 | 146 | 9.0 | 18.0 | 0.00 | 0.00 | 0.00 | 20 | 1016.8 |
| 20260903143635 | 69 | 134 | 7.0 | 16.0 | 0.00 | 0.00 | 0.00 | 21 | 1016.7 |
| 20260903143131 | 68 | 112 | 8.0 | 19.0 | 0.00 | 0.00 | 0.00 | 20 | 1016.7 |
| 20260903142627 | 67 | 135 | 17.0 | 21.0 | 0.00 | 0.00 | 0.00 | 22 | 1016.7 |
| 20260903142124 | 66 | 148 | 12.0 | 13.0 | 0.00 | 0.00 | 0.00 | 23 | 1016.7 |
| 20260903141619 | 66 | 163 | 8.0 | 16.0 | 0.00 | 0.00 | 0.00 | 24 | 1016.8 |
| 20260903141113 | 66 | 180 | 7.0 | 13.0 | 0.00 | 0.00 | 0.00 | 23 | 1016.4 |
| 20260903140609 | 66 | 127 | 6.0 | 13.0 | 0.00 | 0.00 | 0.00 | 23 | 1016.4 |
| 20260903140104 | 65 | 157 | 10.0 | 14.0 | 0.00 | 0.00 | 0.00 | 24 | 1016.6 |
| 20260903135600 | 65 | 143 | 6.0 | 14.0 | 0.00 | 0.00 | 0.00 | 23 | 1016.7 |
| 20260903135055 | 65 | 185 | 6.0 | 13.0 | 0.00 | 0.00 | 0.00 | 24 | 1016.7 |
| 20260903134554 | 65 | 181 | 10.0 | 16.0 | 0.00 | 0.00 | 0.00 | 23 | 1016.3 |
| 20260903134050 | 65 | 156 | 12.0 | 17.0 | 0.00 | 0.00 | 0.00 | 23 | 1016.3 |
| 20260903133547 | 66 | 174 | 8.0 | 16.0 | 0.00 | 0.00 | 0.00 | 22 | 1016.4 |
| 20260903133043 | 66 | 177 | 10.0 | 16.0 | 0.00 | 0.00 | 0.00 | 22 | 1016.4 |
| 20260903132537 | 66 | 145 | 16.0 | 17.0 | 0.00 | 0.00 | 0.00 | 21 | 1016.3 |
| 20260903132032 | 66 | 169 | 14.0 | 18.0 | 0.00 | 0.00 | 0.00 | 22 | 1016.6 |
| 20260903131527 | 66 | 157 | 12.0 | 17.0 | 0.00 | 0.00 | 0.00 | 21 | 1016.1 |
| 20260903131026 | 66 | 150 | 10.0 | 21.0 | 0.00 | 0.00 | 0.00 | 20 | 1016.3 |
| 20260903130521 | 66 | 151 | 6.0 | 15.0 | 0.00 | 0.00 | 0.00 | 21 | 1016.0 |
| 20260903130020 | 66 | 160 | 9.0 | 17.0 | 0.00 | 0.00 | 0.00 | 21 | 1016.1 |
| 20260903125520 | 66 | 152 | 10.0 | 16.0 | 0.00 | 0.00 | 0.00 | 22 | 1015.9 |
| 20260903125015 | 66 | 155 | 6.0 | 12.0 | 0.00 | 0.00 | 0.00 | 22 | 1015.9 |
| 20260903124510 | 66 | 146 | 11.0 | 16.0 | 0.00 | 0.00 | 0.00 | 22 | 1016.0 |
| 20260903124009 | 66 | 131 | 9.0 | 14.0 | 0.00 | 0.00 | 0.00 | 22 | 1015.9 |
| 20260903123508 | 66 | 143 | 9.0 | 17.0 | 0.00 | 0.00 | 0.00 | 21 | 1015.9 |
| 20260903123007 | 65 | 137 | 13.0 | 22.0 | 0.00 | 0.00 | 0.00 | 23 | 1015.6 |
| 20260903122503 | 64 | 161 | 11.0 | 15.0 | 0.00 | 0.00 | 0.00 | 22 | 1015.7 |
| 20260903122001 | 64 | 184 | 6.0 | 14.0 | 0.00 | 0.00 | 0.00 | 23 | 1015.9 |
| 20260903121456 | 64 | 154 | 9.0 | 17.0 | 0.00 | 0.00 | 0.00 | 26 | 1015.9 |
| 20260903120952 | 62 | 168 | 14.0 | 18.0 | 0.00 | 0.00 | 0.00 | 26 | 1015.9 |
| 20260903120451 | 62 | 165 | 11.0 | 19.0 | 0.00 | 0.00 | 0.00 | 33 | 1015.7 |
| 20260903115950 | 63 | 173 | 11.0 | 16.0 | 0.00 | 0.00 | 0.00 | 28 | 1015.7 |
| 20260903115449 | 63 | 153 | 9.0 | 17.0 | 0.00 | 0.00 | 0.00 | 27 | 1015.6 |
| 20260903114944 | 64 | 171 | 10.0 | 17.0 | 0.00 | 0.00 | 0.00 | 31 | 1015.7 |
| 20260903114439 | 64 | 157 | 15.0 | 19.0 | 0.00 | 0.00 | 0.00 | 28 | 1015.4 |
| 20260903113935 | 65 | 162 | 11.0 | 16.0 | 0.00 | 0.00 | 0.00 | 22 | 1015.4 |
| 20260903113431 | 65 | 178 | 9.0 | 19.0 | 0.00 | 0.00 | 0.00 | 22 | 1015.7 |
| 20260903112926 | 65 | 163 | 12.0 | 18.0 | 0.00 | 0.00 | 0.00 | 22 | 1015.6 |
| 20260903112422 | 65 | 151 | 14.0 | 19.0 | 0.00 | 0.00 | 0.00 | 22 | 1015.9 |
| 20260903111921 | 65 | 150 | 13.0 | 18.0 | 0.00 | 0.00 | 0.00 | 22 | 1015.7 |
| 20260903111420 | 65 | 155 | 15.0 | 19.0 | 0.00 | 0.00 | 0.00 | 22 | 1015.5 |
| 20260903110917 | 66 | 159 | 12.0 | 16.0 | 0.00 | 0.00 | 0.00 | 22 | 1015.6 |
| 20260903110412 | 66 | 162 | 10.0 | 18.0 | 0.00 | 0.00 | 0.00 | 22 | 1015.6 |
| 20260903105907 | 66 | 151 | 12.0 | 16.0 | 0.00 | 0.00 | 0.00 | 22 | 1015.6 |
| 20260903105403 | 66 | 159 | 14.0 | 20.0 | 0.00 | 0.00 | 0.00 | 22 | 1015.6 |
| 20260903104902 | 65 | 157 | 16.0 | 21.0 | 0.00 | 0.00 | 0.00 | 23 | 1015.4 |
| 20260903104356 | 66 | 170 | 13.0 | 19.0 | 0.00 | 0.00 | 0.00 | 22 | 1015.5 |
| 20260903103853 | 66 | 159 | 9.0 | 17.0 | 0.00 | 0.00 | 0.00 | 22 | 1015.5 |
| 20260903103349 | 66 | 160 | 11.0 | 18.0 | 0.00 | 0.00 | 0.00 | 22 | 1015.4 |
| 20260903102844 | 67 | 158 | 11.0 | 17.0 | 0.00 | 0.00 | 0.00 | 21 | 1015.2 |
| 20260903102338 | 67 | 166 | 11.0 | 21.0 | 0.00 | 0.00 | 0.00 | 21 | 1015.4 |
| 20260903101839 | 67 | 173 | 10.0 | 17.0 | 0.00 | 0.00 | 0.00 | 21 | 1015.3 |
| 20260903101333 | 67 | 158 | 10.0 | 26.0 | 0.00 | 0.00 | 0.00 | 20 | 1015.3 |
| 20260903100829 | 67 | 140 | 9.0 | 17.0 | 0.00 | 0.00 | 0.00 | 22 | 1015.3 |
| 20260903100329 | 66 | 148 | 20.0 | 22.0 | 0.00 | 0.00 | 0.00 | 23 | 1015.3 |
| 20260903095827 | 66 | 155 | 14.0 | 18.0 | 0.00 | 0.00 | 0.00 | 21 | 1015.5 |
| 20260903095326 | 66 | 141 | 16.0 | 19.0 | 0.00 | 0.00 | 0.00 | 23 | 1015.1 |
| 20260903094822 | 67 | 146 | 10.0 | 21.0 | 0.00 | 0.00 | 0.00 | 23 | 1014.9 |
| 20260903094316 | 66 | 148 | 10.0 | 22.0 | 0.00 | 0.00 | 0.00 | 22 | 1015.4 |
| 20260903093812 | 66 | 153 | 11.0 | 22.0 | 0.00 | 0.00 | 0.00 | 26 | 1014.9 |
| 20260903093307 | 66 | 148 | 17.0 | 21.0 | 0.00 | 0.00 | 0.00 | 25 | 1015.2 |
| 20260903092807 | 67 | 138 | 17.0 | 21.0 | 0.00 | 0.00 | 0.00 | 22 | 1015.2 |
| 20260903092306 | 66 | 147 | 15.0 | 19.0 | 0.00 | 0.00 | 0.00 | 23 | 1015.1 |
| 20260903091801 | 66 | 151 | 16.0 | 18.0 | 0.00 | 0.00 | 0.00 | 23 | 1015.3 |
| 20260903091255 | 66 | 165 | 8.0 | 17.0 | 0.00 | 0.00 | 0.00 | 23 | 1015.3 |
| 20260903090751 | 66 | 174 | 9.0 | 17.0 | 0.00 | 0.00 | 0.00 | 24 | 1015.4 |
| 20260903090250 | 67 | 162 | 10.0 | 19.0 | 0.00 | 0.00 | 0.00 | 22 | 1015.2 |
| 20260903085749 | 67 | 156 | 17.0 | 20.0 | 0.00 | 0.00 | 0.00 | 23 | 1015.1 |
| 20260903085244 | 67 | 157 | 8.0 | 19.0 | 0.00 | 0.00 | 0.00 | 23 | 1015.2 |
| 20260903084742 | 67 | 166 | 12.0 | 17.0 | 0.00 | 0.00 | 0.00 | 23 | 1015.4 |
| 20260903084237 | 68 | 129 | 13.0 | 22.0 | 0.00 | 0.00 | 0.00 | 22 | 1015.1 |
| 20260903083732 | 68 | 146 | 16.0 | 21.0 | 0.00 | 0.00 | 0.00 | 22 | 1015.4 |
| 20260903083226 | 68 | 161 | 11.0 | 23.0 | 0.00 | 0.00 | 0.00 | 21 | 1015.3 |
| 20260903082720 | 68 | 159 | 16.0 | 19.0 | 0.00 | 0.00 | 0.00 | 21 | 1015.4 |
| 20260903082216 | 68 | 148 | 12.0 | 17.0 | 0.00 | 0.00 | 0.00 | 21 | 1015.3 |
| 20260903081716 | 69 | 164 | 10.0 | 17.0 | 0.00 | 0.00 | 0.00 | 21 | 1015.4 |